This is the latest recevied weather packets stored in our database for station/object K5SVV. If no packets are shown the sender has not sent any weather packets the latest 10 day(s).
| Time | Temp. | Humidity | Pressure | Rain* | Wind** | Luminosity | Snow |
|---|---|---|---|---|---|---|---|
| 1788542097 | 33.33° C | 55% | 1014.5 hPa | 0 mm | - | 800 W/m² | - |
| 1788541793 | 32.78° C | 56% | 1014.4 hPa | 0 mm | - | 760 W/m² | - |
| 1788541487 | 32.78° C | 57% | 1014.5 hPa | 0 mm | - | 725 W/m² | - |
| 1788541183 | 32.78° C | 61% | 1014.2 hPa | 0 mm | - | 757 W/m² | - |
| 1788540882 | 32.78° C | 60% | 1014.5 hPa | 0 mm | - | 743 W/m² | - |
| 1788540581 | 32.22° C | 60% | 1014.4 hPa | 0 mm | - | 731 W/m² | - |
| 1788540277 | 32.22° C | 60% | 1014.6 hPa | 0 mm | - | 739 W/m² | - |
| 1788539973 | 32.22° C | 62% | 1014.5 hPa | 0 mm | - | 663 W/m² | - |
| 1788539672 | 32.22° C | 61% | 1014.5 hPa | 0 mm | - | 632 W/m² | - |
| 1788539366 | 32.22° C | 61% | 1014.6 hPa | 0 mm | - | 625 W/m² | - |
| 1788539062 | 31.67° C | 60% | 1014.5 hPa | 0 mm | - | 621 W/m² | - |
| 1788538757 | 31.11° C | 64% | 1014.7 hPa | 0 mm | - | 680 W/m² | - |
| 1788538452 | 31.67° C | 60% | 1014.9 hPa | 0 mm | - | 713 W/m² | - |
| 1788538148 | 31.67° C | 64% | 1014.5 hPa | 0 mm | - | 726 W/m² | - |
| 1788537843 | 31.11° C | 63% | 1014.4 hPa | 0 mm | - | 726 W/m² | - |
| 1788537538 | 31.11° C | 65% | 1014.4 hPa | 0 mm | - | 717 W/m² | - |
| 1788537232 | 30.56° C | 67% | 1014.6 hPa | 0 mm | - | 673 W/m² | - |
| 1788536930 | 30.56° C | 67% | 1014.6 hPa | 0 mm | - | 685 W/m² | - |
| 1788536626 | 30.56° C | 74% | 1014.6 hPa | 0 mm | - | 507 W/m² | - |
| 1788536321 | 30° C | 75% | 1014.5 hPa | 0 mm | - | 715 W/m² | - |
| 1788536016 | 29.44° C | 79% | 1014.4 hPa | 0 mm | - | 590 W/m² | - |
| 1788535712 | 28.89° C | 79% | 1014.1 hPa | 0 mm | - | 696 W/m² | - |
| 1788535407 | 28.89° C | 79% | 1014.6 hPa | 0 mm | - | 602 W/m² | - |
| 1788535102 | 28.89° C | 81% | 1014.4 hPa | 0 mm | - | 348 W/m² | - |
| 1788534801 | 28.33° C | 83% | 1014.2 hPa | 0 mm | - | 572 W/m² | - |
* Rain latest hour (hover to see other rain measurements)
** Current wind speed in m/s (hover to see current wind gust speed)